Date String (YYYY-MM-DD hh:mm:ss) UTC,Instrument flags,absolute air pressure of the measurement (hPa),sample flow rate (lpm),inlet stack bypass flow (lpm),air temperature of the measurement (°C),ambient temperature measured by the external sensor (°C),aerosol sample conditioner tube jacket temperature (°C),OPC LED temperature (°C),internal box temperature (°C),relative humidity of the measurement (%),span deviation,mass concentration of particles derived from Lorenz-Mie calculation of OPC scattering (μg/m³),mass concentration of particles derived from Lorenz-Mie calculation of OPC scattering (μg/m³),mass concentration of particles derived from Lorenz-Mie calculation of OPC scattering (μg/m³)
DateTimeUTC,F1_M11,P_M11,Q1_M11,Q2_M11,T1_M11,T2_M11,T3_M11,T4_M11,T5_M11,U1_M11,ZSPAN_M11,X0_M11,X2_M11,X1_M11
2024-06-01 11:00:00,SystemResetWarning,0829.0,5.00,000.00,030.3,029.5,000.0,038.8,032.0,019.5,0000.0,0010.28,0004.22,0003.57
2024-06-01 11:01:00,SystemResetWarning,0829.0,5.01,000.00,030.3,029.5,000.0,038.8,032.1,019.3,0000.0,0010.60,0004.22,0003.54
2024-06-01 11:02:00,SystemResetWarning,0829.0,5.00,000.00,030.3,029.5,000.0,038.8,032.0,020.0,0000.0,0010.85,0004.21,0003.52
2024-06-01 11:03:00,SystemResetWarning,0829.0,4.99,000.00,030.3,029.5,000.0,038.8,032.0,020.2,0000.0,0012.36,0004.26,0003.54
2024-06-01 11:04:00,SystemResetWarning,0829.0,4.99,000.00,030.3,029.5,000.0,038.8,032.0,020.2,0000.0,0013.83,0004.30,0003.55
2024-06-01 11:05:00,SystemResetWarning,0829.0,4.99,000.00,030.3,029.5,000.0,038.8,032.1,020.1,0000.0,0014.16,0004.30,0003.56
2024-06-01 11:06:00,SystemResetWarning,0829.0,5.01,000.00,030.3,029.5,000.0,038.8,032.1,020.2,0000.0,0014.50,0004.31,0003.58
2024-06-01 11:07:00,SystemResetWarning,0829.1,5.01,000.00,030.3,029.5,000.0,038.8,032.1,020.1,0000.0,0014.77,0004.30,0003.58
2024-06-01 11:08:00,SystemResetWarning,0829.1,5.00,000.00,030.3,029.5,000.0,038.8,032.0,020.0,0000.0,0014.63,0004.31,0003.56
2024-06-01 11:09:00,SystemResetWarning,0829.1,4.99,000.00,030.3,029.5,000.0,038.8,032.0,019.6,0000.0,0014.35,0004.31,0003.56
2024-06-01 11:10:00,SystemResetWarning,0829.1,4.99,000.00,030.3,029.5,000.0,038.8,032.0,019.5,0000.0,0014.75,0004.31,0003.56
2024-06-01 11:11:00,SystemResetWarning,0829.1,5.01,000.00,030.3,029.5,000.0,038.8,032.0,019.8,0000.0,0015.02,0004.32,0003.55
2024-06-01 11:12:00,SystemResetWarning,0829.1,5.01,000.00,030.3,029.5,000.0,038.8,032.0,020.0,0000.0,0015.23,0004.31,0003.55
2024-06-01 11:13:00,SystemResetWarning,0829.1,5.01,000.00,030.3,029.5,000.0,038.8,032.0,020.0,0000.0,0014.76,0004.29,0003.56
2024-06-01 11:14:00,SystemResetWarning,0829.1,4.99,000.00,030.3,029.5,000.0,038.8,032.0,020.1,0000.0,0013.41,0004.24,0003.56
2024-06-01 11:15:00,SystemResetWarning,0829.1,4.98,000.00,030.3,029.5,000.0,038.8,032.0,020.1,0000.0,0011.76,0004.17,0003.56
2024-06-01 11:16:00,SystemResetWarning,0829.1,5.00,000.00,030.3,029.5,000.0,038.8,032.0,020.0,0000.0,0011.44,0004.17,0003.55
2024-06-01 11:17:00,SystemResetWarning,0829.1,5.01,000.00,030.3,029.5,000.0,038.8,032.0,020.1,0000.0,0011.58,0004.17,0003.55
2024-06-01 11:18:00,SystemResetWarning,0829.1,5.01,000.00,030.3,029.5,000.0,038.7,032.0,020.0,0000.0,0011.26,0004.17,0003.54
2024-06-01 11:19:00,SystemResetWarning,0829.0,5.00,000.00,030.3,029.5,000.0,038.7,032.0,020.1,0000.0,0010.76,0004.15,0003.54
2024-06-01 11:20:00,SystemResetWarning,0829.0,4.99,000.00,030.3,029.5,000.0,038.7,032.0,020.2,0000.0,0010.62,0004.16,0003.54
2024-06-01 11:21:00,SystemResetWarning,0829.0,4.99,000.00,030.3,029.4,000.0,038.8,032.0,020.1,0000.0,0009.87,0004.16,0003.55
2024-06-01 11:22:00,SystemResetWarning,0828.9,4.99,000.00,030.3,029.4,000.0,038.7,032.0,020.0,0000.0,0010.29,0004.16,0003.56
2024-06-01 11:23:00,SystemResetWarning,0829.0,4.99,000.00,030.2,029.4,000.0,038.7,031.9,020.0,0000.0,0009.81,0004.14,0003.56
2024-06-01 11:24:00,SystemResetWarning,0829.0,5.01,000.00,030.2,029.4,000.0,038.7,031.9,020.2,0000.0,0009.81,0004.15,0003.57
2024-06-01 11:25:00,SystemResetWarning,0829.0,5.01,000.00,030.2,029.4,000.0,038.7,031.9,020.3,0000.0,0009.74,0004.19,0003.57
2024-06-01 11:26:00,SystemResetWarning,0828.9,4.99,000.00,030.2,029.4,000.0,038.7,031.9,020.3,0000.0,0009.84,0004.25,0003.59
2024-06-01 11:27:00,SystemResetWarning,0828.8,4.99,000.00,030.2,029.4,000.0,038.7,031.9,020.5,0000.0,0009.93,0004.28,0003.60
2024-06-01 11:28:00,SystemResetWarning,0828.8,5.01,000.00,030.2,029.3,000.0,038.7,031.9,020.5,0000.0,0009.92,0004.32,0003.61
2024-06-01 11:29:00,SystemResetWarning,0828.8,5.02,000.00,030.2,029.3,000.0,038.7,031.9,020.4,0000.0,0010.13,0004.35,0003.62
2024-06-01 11:30:00,SystemResetWarning,0828.8,5.00,000.00,030.2,029.3,000.0,038.7,031.9,020.3,0000.0,0010.08,0004.38,0003.64
2024-06-01 11:31:00,SystemResetWarning,0828.8,4.99,000.00,030.2,029.3,000.0,038.7,031.8,020.2,0000.0,0010.58,0004.40,0003.65
2024-06-01 11:32:00,SystemResetWarning,0828.8,5.00,000.00,030.1,029.3,000.0,038.6,031.8,020.2,0000.0,0010.81,0004.41,0003.65
2024-06-01 11:33:00,SystemResetWarning,0828.9,5.01,000.00,030.1,029.3,000.0,038.6,031.8,020.2,0000.0,0010.66,0004.42,0003.66
2024-06-01 11:34:00,SystemResetWarning,0829.0,5.00,000.00,030.1,029.2,000.0,038.6,031.8,020.2,0000.0,0010.82,0004.44,0003.66
2024-06-01 11:35:00,SystemResetWarning,0828.9,5.01,000.00,030.1,029.2,000.0,038.6,031.8,020.5,0000.0,0011.13,0004.45,0003.68
2024-06-01 11:36:00,SystemResetWarning,0829.0,5.00,000.00,030.1,029.2,000.0,038.6,031.8,020.1,0000.0,0011.29,0004.48,0003.69
2024-06-01 11:37:00,SystemResetWarning,0829.0,4.99,000.00,030.1,029.2,000.0,038.6,031.8,020.5,0000.0,0011.88,0004.50,0003.69
2024-06-01 11:38:00,SystemResetWarning,0829.0,4.99,000.00,030.1,029.2,000.0,038.6,031.8,020.8,0000.0,0011.92,0004.49,0003.70
2024-06-01 11:39:00,SystemResetWarning,0829.0,5.00,000.00,030.1,029.2,000.0,038.6,031.8,020.9,0000.0,0011.64,0004.51,0003.72
2024-06-01 11:40:00,SystemResetWarning,0829.0,5.01,000.00,030.1,029.2,000.0,038.6,031.8,021.0,0000.0,0012.27,0004.57,0003.74
2024-06-01 11:41:00,SystemResetWarning,0829.0,5.01,000.00,030.1,029.2,000.0,038.6,031.8,021.0,0000.0,0013.23,0004.59,0003.77
2024-06-01 11:42:00,SystemResetWarning,0829.1,5.00,000.00,030.1,029.2,000.0,038.6,031.8,020.3,0000.0,0013.01,0004.59,0003.79
2024-06-01 11:43:00,SystemResetWarning,0829.1,5.00,000.00,030.1,029.2,000.0,038.6,031.8,020.2,0000.0,0013.34,0004.59,0003.82
2024-06-01 11:44:00,SystemResetWarning,0829.1,5.00,000.00,030.1,029.2,000.0,038.6,031.8,020.2,0000.0,0013.92,0004.60,0003.82
2024-06-01 11:45:00,SystemResetWarning,0829.1,5.00,000.00,030.1,029.2,000.0,038.6,031.8,020.5,0000.0,0013.79,0004.60,0003.82
2024-06-01 11:46:00,SystemResetWarning,0829.1,5.00,000.00,030.1,029.2,000.0,038.5,031.8,020.7,0000.0,0013.47,0004.61,0003.83
2024-06-01 11:47:00,SystemResetWarning,0829.1,5.00,000.00,030.1,029.2,000.0,038.5,031.8,021.5,0000.0,0014.61,0004.61,0003.84
2024-06-01 11:48:00,SystemResetWarning,0829.1,5.00,000.00,030.1,029.2,000.0,038.5,031.8,021.7,0000.0,0014.61,0004.67,0003.90
2024-06-01 11:49:00,SystemResetWarning,0829.1,5.00,000.00,030.1,029.2,000.0,038.5,031.8,021.1,0000.0,0014.89,0004.72,0003.95
2024-06-01 11:50:00,SystemResetWarning,0829.1,5.00,000.00,030.1,029.2,000.0,038.5,031.8,020.6,0000.0,0015.01,0004.70,0003.97
2024-06-01 11:51:00,SystemResetWarning,0829.1,5.01,000.00,030.0,029.2,000.0,038.5,031.7,020.4,0000.0,0015.09,0004.63,0003.95
2024-06-01 11:52:00,SystemResetWarning,0829.1,5.00,000.00,030.0,029.2,000.0,038.5,031.8,020.6,0000.0,0014.72,0004.57,0003.92
2024-06-01 11:53:00,SystemResetWarning,0829.1,4.99,000.00,030.0,029.2,000.0,038.5,031.7,021.4,0000.0,0014.67,0004.56,0003.89
2024-06-01 11:54:00,SystemResetWarning,0829.1,4.99,000.00,030.0,029.2,000.0,038.5,031.8,022.0,0000.0,0014.27,0004.63,0003.92
2024-06-01 11:55:00,SystemResetWarning,0829.1,4.99,000.00,030.0,029.2,000.0,038.5,031.8,022.2,0000.0,0013.32,0004.71,0003.98
2024-06-01 11:56:00,SystemResetWarning,0829.1,5.00,000.00,030.0,029.2,000.0,038.5,031.8,022.3,0000.0,0013.03,0004.80,0004.06
2024-06-01 11:57:00,SystemResetWarning,0829.1,5.00,000.00,030.0,029.2,000.0,038.5,031.7,022.3,0000.0,0013.24,0004.86,0004.12
2024-06-01 11:58:00,SystemResetWarning,0829.2,5.01,000.00,030.0,029.2,000.0,038.5,031.8,022.1,0000.0,0012.55,0004.94,0004.17
2024-06-01 11:59:00,SystemResetWarning,0829.2,5.00,000.00,030.0,029.2,000.0,038.5,031.7,022.1,0000.0,0011.83,0004.93,0004.17
